Grosse Ile, MI

9:08 AM EDT on June 25, 2017 (GMT -0400)
Grosse Ile Municipal

Weather History for KONZ - January, 2012

Change the Weather History Date:

Monday, January 30, 2012

  Actual Average (KDTW) Record (KDTW)
Temperature  
Mean Temperature 28 °F -  
Max Temperature 35 °F 32 °F 62 °F (2013)
Min Temperature 21 °F 19 °F -4 °F (1951)
Degree Days  
Heating Degree Days 37    
Moisture  
Dew Point 23 °F    
Average Humidity 80    
Maximum Humidity 93    
Minimum Humidity 69    
Precipitation  
Precipitation 0.00 in - - ()
Sea Level Pressure  
Sea Level Pressure 30.11 in    
Wind  
Wind Speed 7 mph (SSW)    
Max Wind Speed 17 mph    
Max Gust Speed 22 mph    
Visibility 10 miles    
Events      
Averages and records for this station are not official NWS values.
T = Trace of Precipitation, MM = Missing Value Source: NWS Daily Summary

Daily Weather History Graph

Daily Weather History Graph

Search for Another Location

Airport or City:

Trip Planner

Search our weather history database for the weather conditions in past years. The results will help you decide how hot, cold, wet, or windy it might be!

Date:

Astronomy

Jan. 30, 2012 Rise Set
Actual Time 7:48 AM EST 5:44 PM EST
Civil Twilight 7:18 AM EST 6:13 PM EST
Nautical Twilight 6:44 AM EST 6:47 PM EST
Astronomical Twilight 6:11 AM EST 7:20 PM EST
Moon 11:01 AM EST (1/30) 12:35 AM EST (1/30)
Length of Visible Light 10h 55m
Length of Day
9h 56m
Waxing Crescent, 46% of the Moon is Illuminated
Jan 30
Waxing Crescent
Jan 30
First Quarter
Feb 7
Full
Feb 14
Last Quarter
Feb 21
New

Hourly Weather History & Observations

Time (EST) Temp. Windchill Dew Point Humidity Pressure Visibility Wind Dir Wind Speed Gust Speed Precip Events Conditions
12:01 AM 24.8 °F 17.9 °F 15.8 °F 69% 30.20 in 10.0 mi West 5.8 mph - N/A   Clear
12:21 AM 24.8 °F 19.1 °F 15.8 °F 69% 30.20 in 10.0 mi West 4.6 mph - N/A   Clear
12:41 AM 24.8 °F 19.1 °F 15.8 °F 69% 30.21 in 10.0 mi WSW 4.6 mph - N/A   Clear
1:21 AM 24.8 °F 17.9 °F 15.8 °F 69% 30.21 in 10.0 mi WSW 5.8 mph - N/A   Clear
1:41 AM 24.8 °F 19.1 °F 15.8 °F 69% 30.21 in 10.0 mi WSW 4.6 mph - N/A   Clear
2:01 AM 24.8 °F 19.1 °F 17.6 °F 74% 30.21 in 10.0 mi West 4.6 mph - N/A   Clear
2:21 AM 23.0 °F 15.8 °F 17.6 °F 80% 30.21 in 10.0 mi WSW 5.8 mph - N/A   Clear
2:41 AM 23.0 °F 17.0 °F 17.6 °F 80% 30.22 in 10.0 mi West 4.6 mph - N/A   Clear
3:01 AM 23.0 °F 14.7 °F 17.6 °F 80% 30.23 in 10.0 mi WSW 6.9 mph - N/A   Clear
3:21 AM 23.0 °F 15.8 °F 17.6 °F 80% 30.23 in 10.0 mi WSW 5.8 mph - N/A   Clear
3:41 AM 23.0 °F 17.0 °F 17.6 °F 80% 30.22 in 10.0 mi WSW 4.6 mph - N/A   Clear
4:01 AM 23.0 °F 14.7 °F 17.6 °F 80% 30.22 in 10.0 mi WSW 6.9 mph - N/A   Clear
4:21 AM 23.0 °F 15.8 °F 17.6 °F 80% 30.22 in 10.0 mi WSW 5.8 mph - N/A   Clear
4:41 AM 23.0 °F 14.7 °F 17.6 °F 80% 30.23 in 10.0 mi WSW 6.9 mph - N/A   Clear
5:01 AM 23.0 °F 15.8 °F 17.6 °F 80% 30.23 in 10.0 mi WSW 5.8 mph - N/A   Clear
5:21 AM 21.2 °F 12.6 °F 17.6 °F 86% 30.23 in 10.0 mi West 6.9 mph - N/A   Clear
5:41 AM 21.2 °F 16.4 °F 17.6 °F 86% 30.23 in 10.0 mi West 3.5 mph - N/A   Clear
6:01 AM 21.2 °F - 17.6 °F 86% 30.22 in 10.0 mi West 1.2 mph - N/A   Clear
6:21 AM 21.2 °F 16.4 °F 17.6 °F 86% 30.22 in 10.0 mi WSW 3.5 mph - N/A   Clear
6:41 AM 21.2 °F 16.4 °F 17.6 °F 86% 30.23 in 10.0 mi WSW 3.5 mph - N/A   Clear
7:01 AM 23.0 °F 15.8 °F 17.6 °F 80% 30.22 in 10.0 mi WSW 5.8 mph - N/A   Scattered Clouds
7:21 AM 23.0 °F 13.9 °F 19.4 °F 86% 30.22 in 10.0 mi SSW 8.1 mph - N/A   Mostly Cloudy
7:41 AM 24.8 °F 16.9 °F 19.4 °F 80% 30.22 in 10.0 mi SW 6.9 mph - N/A   Mostly Cloudy
8:01 AM 24.8 °F 19.1 °F 19.4 °F 80% 30.22 in 10.0 mi SW 4.6 mph - N/A   Mostly Cloudy
8:21 AM 24.8 °F 20.5 °F 19.4 °F 80% 30.22 in 10.0 mi SW 3.5 mph - N/A   Overcast
8:41 AM 26.6 °F - 19.4 °F 74% 30.21 in 10.0 mi SSW 2.3 mph - N/A   Overcast
9:01 AM 26.6 °F 19.1 °F 21.2 °F 80% 30.22 in 10.0 mi SSW 6.9 mph - N/A   Mostly Cloudy
9:21 AM 26.6 °F 16.8 °F 21.2 °F 80% 30.22 in 10.0 mi SW 10.4 mph - N/A   Overcast
9:41 AM 28.4 °F 19.1 °F 23.0 °F 80% 30.22 in 10.0 mi SSW 10.4 mph - N/A   Overcast
10:01 AM 28.4 °F 18.5 °F 23.0 °F 80% 30.22 in 10.0 mi SSW 11.5 mph - N/A   Overcast
10:21 AM 28.4 °F 18.0 °F 24.8 °F 86% 30.21 in 10.0 mi South 12.7 mph - N/A   Mostly Cloudy
10:41 AM 28.4 °F 17.0 °F 23.0 °F 80% 30.21 in 10.0 mi South 15.0 mph - N/A   Mostly Cloudy
11:01 AM 28.4 °F 18.0 °F 23.0 °F 80% 30.21 in 10.0 mi South 12.7 mph - N/A   Mostly Cloudy
11:34 AM 30.2 °F 20.2 °F 24.8 °F 80% 30.20 in 10.0 mi South 12.7 mph - N/A   Mostly Cloudy
11:54 AM 30.2 °F 19.8 °F 24.8 °F 80% 30.19 in 10.0 mi South 13.8 mph - N/A   Mostly Cloudy
12:14 PM 30.2 °F 20.8 °F 24.8 °F 80% 30.15 in 10.0 mi SSE 11.5 mph - N/A   Overcast
12:34 PM 30.2 °F 20.2 °F 24.8 °F 80% 30.15 in 10.0 mi SSE 12.7 mph - N/A   Overcast
12:54 PM 30.2 °F 20.8 °F 23.0 °F 75% 30.13 in 10.0 mi SSE 11.5 mph - N/A   Overcast
1:14 PM 30.2 °F 20.8 °F 24.8 °F 80% 30.08 in 10.0 mi SSE 11.5 mph - N/A   Overcast
1:35 PM 30.2 °F 18.5 °F 24.8 °F 80% 30.07 in 10.0 mi SSE 17.3 mph - N/A   Scattered Clouds
1:54 PM 32.0 °F 20.8 °F 26.6 °F 80% 30.05 in 10.0 mi SSE 17.3 mph - N/A   Mostly Cloudy
2:14 PM 32.0 °F 21.6 °F 26.6 °F 80% 30.03 in 10.0 mi SSE 15.0 mph 21.9 mph N/A   Overcast
2:34 PM 33.8 °F 23.5 °F 26.6 °F 75% 30.02 in 10.0 mi SSE 16.1 mph 21.9 mph N/A   Overcast
2:54 PM 33.8 °F 23.5 °F 26.6 °F 75% 30.00 in 10.0 mi SSE 16.1 mph 20.7 mph N/A   Mostly Cloudy
3:14 PM 33.8 °F 23.9 °F 26.6 °F 75% 29.99 in 10.0 mi SSE 15.0 mph - N/A   Overcast
3:34 PM 33.8 °F 23.5 °F 26.6 °F 75% 29.97 in 10.0 mi SSE 16.1 mph - N/A   Overcast
3:55 PM 33.8 °F 25.8 °F 26.6 °F 75% 29.97 in 10.0 mi SSE 10.4 mph - N/A   Overcast
4:14 PM 33.8 °F 25.3 °F 28.4 °F 81% 29.96 in 10.0 mi SSE 11.5 mph - N/A   Mostly Cloudy
4:34 PM 35.6 °F 27.5 °F 28.4 °F 75% 29.95 in 10.0 mi SSE 11.5 mph - N/A   Mostly Cloudy
4:54 PM 35.6 °F 28.6 °F 28.4 °F 75% 29.94 in 10.0 mi SE 9.2 mph - N/A   Mostly Cloudy
5:14 PM 35.6 °F 28.6 °F 28.4 °F 75% 29.93 in 10.0 mi SE 9.2 mph - N/A   Mostly Cloudy
5:35 PM 35.6 °F 28.6 °F 30.2 °F 81% 29.92 in 10.0 mi SSE 9.2 mph - N/A   Scattered Clouds
5:54 PM 35.6 °F 29.9 °F 30.2 °F 81% 29.92 in 10.0 mi SSE 6.9 mph - N/A   Scattered Clouds
6:14 PM 35.6 °F 29.2 °F 30.2 °F 81% 29.91 in 10.0 mi SSE 8.1 mph - N/A   Scattered Clouds
6:35 PM 35.6 °F 29.9 °F 30.2 °F 81% 29.91 in 10.0 mi South 6.9 mph - N/A   Scattered Clouds
6:54 PM 35.6 °F 30.7 °F 30.2 °F 81% 29.91 in 10.0 mi South 5.8 mph - N/A   Clear
7:14 PM 35.6 °F - 32.0 °F 87% 29.92 in 10.0 mi Calm Calm - N/A   Clear
7:35 PM 35.6 °F - 32.0 °F 87% 29.91 in 10.0 mi Calm Calm - N/A   Clear
7:54 PM 32.0 °F 28.7 °F 28.4 °F 87% 29.93 in 10.0 mi NNW 3.5 mph - N/A   Clear
8:14 PM 32.0 °F - 30.2 °F 93% 29.93 in 10.0 mi Calm Calm - N/A   Clear
8:34 PM 32.0 °F - 28.4 °F 87% 29.93 in 10.0 mi Calm Calm - N/A   Clear
8:54 PM 30.2 °F - 28.4 °F 93% 29.93 in 10.0 mi Calm Calm - N/A   Clear
9:15 PM 30.2 °F - 28.4 °F 93% 29.94 in 10.0 mi Calm Calm - N/A   Clear
9:34 PM 32.0 °F 28.7 °F 28.4 °F 87% 29.93 in 10.0 mi SSW 3.5 mph - N/A   Clear
9:54 PM 33.8 °F 29.6 °F 30.2 °F 87% 29.93 in 10.0 mi SSW 4.6 mph - N/A   Clear
10:15 PM 39.2 °F 34.2 °F 32.0 °F 75% 29.93 in 10.0 mi SSW 6.9 mph - N/A   Clear
10:34 PM 39.2 °F 34.2 °F 32.0 °F 75% 29.92 in 10.0 mi SSW 6.9 mph - N/A   Clear
10:54 PM 39.2 °F 33.6 °F 32.0 °F 75% 29.92 in 10.0 mi SSW 8.1 mph - N/A   Clear
11:15 PM 41.0 °F 35.8 °F 33.8 °F 76% 29.92 in 10.0 mi SSW 8.1 mph - N/A   Clear
11:34 PM 41.0 °F 35.2 °F 33.8 °F 76% 29.92 in 10.0 mi SW 9.2 mph - N/A   Clear
11:54 PM 42.8 °F 38.0 °F 33.8 °F 70% 29.92 in 10.0 mi SW 8.1 mph - N/A   Clear